{"data":{"norad_id":63495,"intl_designator":"2025-071C","name":"STARLINK-33845","alt_names":[],"object_type":"PAYLOAD","status":"ACTIVE","operator":null,"country":"US","launch_date":"2025-04-07","launch_site_code":"AFWTR","launch_vehicle":null,"mission":null,"orbit_class":"UNKNOWN","rcs_meters":null,"size_class":null,"mass_kg":null,"dimensions":null,"purposes":["comms"],"wikipedia_slug":null,"has_3d_model":false,"image_url":null,"decayed_at":null,"tle_current":{"epoch":"2026-09-20T10:39:08.363520Z","epoch_age_seconds":161313,"freshness":"FRESH","line1":"1 63495U 25071C   26263.44384680  .00019017  00000+0  57254-3 0  9991","line2":"2 63495  53.1619 314.1808 0003507  36.0615 324.0624 15.34397462 82583","mean_motion":15.34397462,"eccentricity":0.0003507,"inclination_deg":53.1619,"raan_deg":314.1808,"arg_perigee_deg":36.0615,"mean_anomaly_deg":324.0624,"bstar":0.00057254,"rev_number":8258,"period_min":93.847913312046,"perigee_km":460.31169837062,"apogee_km":465.1098690061,"semimajor_km":6840.8477836884,"source":"CELESTRAK","updated_at":"2026-09-21T09:00:35.013380Z"}}}